OKEAN-0
1 25860U 99039A 11068.56023678 .00000256 00000-0 46565-4 0 02507
2 25860 097.8716 037.8179 0001044 044.8983 315.2327 14.73720739625987
NOAA-16
1 26536U 00055A 11068.63169488 .00000228 00000-0 14844-3 0 02183
2 26536 099.1512 097.1063 0009905 314.9166 045.1229 14.12601327539300
NOAA-17
1 27453U 02032A 11068.62942013 .00000061 00000-0 44182-4 0 02141
2 27453 098.3923 112.8540 0012685 082.0012 278.2588 14.24243324452485
NOAA-18
1 28654U 05018A 11068.64465417 .00000119 00000-0 90646-4 0 06977
2 28654 098.9859 019.6042 0014867 028.3409 331.8566 14.11443070298881
NOAA-19
1 33591U 09005A 11068.61984449 .00000050 00000-0 52026-4 0 08900
2 33591 098.8192 010.4912 0013188 257.6723 102.2970 14.11135789107346
HUBBLE
1 20580U 90037B 11069.06620450 .00001212 00000-0 79507-4 0 7248
2 20580 028.4715 303.8711 0003545 147.4930 212.6124 15.01196317944742
ISS
1 25544U 98067A 11069.85678132 .00026254 00000-0 19548-3 0 9772
2 25544 051.6457 305.2770 0005837 054.4251 048.1894 15.72585793705422
CO-58
1 28895U 05043F 11069.65539151 .00000463 00000-0 10558-3 0 8204
2 28895 097.9825 309.7766 0018114 166.5575 193.6094 14.60023717285864
FALCON
1 30776U 07006E 11068.89704845 .00002211 00000-0 15897-3 0 00469
2 30776 035.4331 230.5297 0002072 305.8753 054.1771 15.04190013220085
MAST
1 31126U 07012K 11069.81586657 .00000209 00000-0 57168-4 0 1035
2 31126 097.9057 102.5585 0095624 116.7213 244.3821 14.53684531206793
CAPE1
1 31130U 07012P 11068.60736582 .00000408 00000-0 10397-3 0 1235
2 31130 097.9105 098.3404 0103326 129.9629 231.0693 14.52304728206189
COMPASS
1 32787U 08021E 11068.17168933 .00001283 00000-0 16724-3 0 09304
2 32787 097.8585 133.8170 0016299 139.5998 220.6416 14.82180175154744
AAUSAT2
1 32788U 08021F 11068.14740426 .00001521 00000-0 19636-3 0 9181
2 32788 097.8571 133.9855 0015826 139.2801 220.9651 14.82346946154751
DO-64
1 32789U 08021G 11069.87135537 .00002422 00000-0 30634-3 0 9366
2 32789 097.8669 136.5101 0016159 132.9462 227.3152 14.82670023155019
CO-66
1 32791U 08021J 11068.16873850 .00001299 00000-0 17036-3 0 09213
2 32791 097.8585 133.7832 0016592 138.3508 221.8957 14.81915678154693
RS-30
1 32953U 08025A 11069.38749899 .00000010 00000-0 00000 0 0 5380
2 32953 082.4985 224.1344 0018228 240.4050 119.5236 12.43010892126811
TACSAT-3
1 35001U 09028A 11068.92613669 .00019688 00000-0 40198-3 0 05360
2 35001 040.4546 054.0615 0022101 196.5801 163.4301 15.45396442101701
PHARMSAT
1 35002U 09028B 11068.36628161 .00014137 00000-0 28869-3 0 04939
2 35002 040.4688 054.9183 0024802 195.1744 164.8343 15.45495646101649
HAWKSAT1
1 35003U 09028C 11068.97138317 .00048176 00000-0 72304-3 0 05402
2 35003 040.4576 033.7899 0028281 225.6415 134.2233 15.53574565101932
CP6
1 35004U 09028D 11069.21405614 .00063231 00000-0 85826-3 0 5433
2 35004 040.4590 027.5709 0025433 232.1310 127.7225 15.56294191102018
AEROCUB3
1 35005U 09028E 11006.09222617 .14049365 73043-5 82692-3 0 6103
2 35005 040.4461 021.7975 0025578 084.1677 280.7191 16.39196088 92544
METEOR-M
1 35865U 09049A 11069.20919084 .00000176 00000-0 10000-3 0 1720
2 35865 098.7205 125.5662 0002222 337.6153 022.4895 14.21834844 76522
RS-38
1 35869U 09049E 11069.15080330 .00000177 00000-0 10000-3 0 1812
2 35869 098.7179 125.5495 0004260 327.8404 032.2480 14.22001758 76524
